Theta_e
340 340 341 342 341 341 339 341 341 339 338 337 336 336 332 331 330 331 331 329 330 329 330 333 332 330 330
344 333 335 337 338 338 337 334 333 334 334 334 332 334 335 334 332 332 330 328 329 328 327 329 329 328 329
344 338 331 332 333 332 332 329 328 333 335 333 330 332 336 335 334 333 330 329 328 326 324 327 325 329 328
341 341 340 340 339 338 336 335 333 334 334 333 328 327 331 331 333 334 332 330 323 326 327 323 328 328 329
342 341 341 340 339 339 338 336 334 333 333 331 334 333 332 326 330 331 331 328 326 325 326 327 327 328 327
342 341 341 340 339 337 336 336 334 332 332 331 330 333 333 332 331 332 330 329 328 326 324 325 327 326 325
338 341 341 340 339 338 337 336 334 332 330 331 330 330 331 332 331 330 330 329 328 326 325 324 323 325 326
340 339 340 339 340 339 338 336 334 333 332 330 329 328 328 330 330 330 329 328 328 327 325 325 324 324 325
337 339 339 339 338 338 338 338 336 334 332 331 330 329 328 329 329 329 328 329 327 327 326 326 325 324 324
333 335 338 339 339 338 338 337 336 335 333 332 331 330 330 329 328 327 326 325 325 325 324 325 324 323 323
330 333 335 337 336 334 336 336 336 335 334 333 332 331 331 329 328 327 326 325 323 323 323 323 324 323 323
327 330 332 334 334 333 333 333 333 332 333 333 332 332 331 329 328 327 325 325 324 323 321 321 322 323 324
324 326 328 328 331 332 332 332 332 331 330 332 332 332 331 328 328 328 327 324 323 322 318 318 321 323 323
320 324 326 326 329 331 332 332 331 331 330 328 329 330 330 326 327 328 326 324 323 323 316 315 312 317 321
315 319 323 327 328 328 329 330 331 330 330 328 328 328 329 327 324 326 326 323 320 322 320 317 312 312 315
321 319 322 322 321 324 327 329 331 332 330 330 329 327 327 327 324 325 325 323 321 318 317 318 321 322 315
Wind_Speed
6 6 7 7 7 8 6 8 9 9 9 8 8 6 7 7 5 5 4 4 2 1 2 3 6 4 4
9 7 6 6 6 8 8 7 8 7 8 9 8 8 8 8 7 5 5 5 4 3 1 3 5 5 6
8 6 7 7 6 6 7 7 7 7 9 9 8 5 9 9 8 8 7 6 3 3 4 2 5 5 5
7 9 9 8 8 9 9 9 8 8 8 7 7 8 9 10 10 10 8 5 5 6 5 4 6 5 5
9 7 5 5 6 6 10 9 8 7 6 7 6 7 8 9 7 9 8 8 8 6 6 6 6 6 5
9 8 8 7 7 7 8 11 8 6 7 7 6 7 8 7 9 8 6 8 9 9 9 9 9 7 5
12 9 9 9 8 10 9 11 9 9 9 8 8 8 8 8 8 9 9 9 9 10 10 10 10 10 10
12 13 10 10 11 10 10 11 14 10 9 9 9 9 9 9 9 9 9 9 9 10 10 11 11 11 11
14 13 11 11 10 10 10 13 14 13 13 12 9 9 9 9 12 10 11 10 10 10 12 11 10 12 11
13 11 10 10 10 11 10 10 14 15 16 13 11 11 11 9 9 10 10 10 11 11 11 10 10 11 13
12 10 11 11 9 9 9 10 14 15 15 14 11 11 12 10 10 10 10 11 11 11 11 11 11 11 12
9 9 8 9 8 9 10 10 13 10 14 13 13 14 12 11 11 11 14 12 11 11 11 12 11 11 12
7 7 8 9 8 10 10 12 11 10 11 15 12 13 12 12 13 13 13 14 11 10 7 9 12 15 16
6 6 7 6 7 8 8 10 13 11 11 11 12 12 13 10 15 14 14 11 11 10 7 7 5 10 12
9 7 7 6 7 7 7 8 9 11 11 11 12 11 11 9 9 12 13 13 10 9 15 8 4 7 5
9 5 7 6 7 6 6 7 7 10 12 12 12 12 11 9 10 11 10 12 12 11 5 11 16 14 7
Wind_Direction
198 192 198 198 186 179 171 171 178 192 184 199 185 214 198 217 213 196 223 247 266 14 114 177 166 195 236
205 201 204 208 207 199 189 176 180 201 210 201 192 208 195 198 220 213 235 252 264 301 308 120 145 210 235
230 212 211 214 218 219 208 195 183 213 195 200 208 208 189 194 203 213 230 240 256 278 303 233 213 235 230
230 230 224 219 220 213 221 217 221 219 216 214 199 197 210 200 206 206 225 227 233 243 222 232 244 253 249
232 230 226 225 227 225 220 219 224 229 217 219 218 205 215 205 224 212 213 232 241 256 249 247 250 253 256
236 227 234 228 223 225 226 221 214 217 227 236 233 226 220 217 225 233 237 238 242 244 252 256 254 257 255
230 235 238 235 226 230 226 222 219 222 219 222 229 230 229 231 228 226 233 237 238 244 246 248 252 254 257
233 232 231 232 235 227 227 224 220 224 226 225 223 227 231 233 235 238 237 237 241 242 245 248 252 255 256
243 240 232 232 230 232 232 227 223 221 226 229 231 228 228 232 239 237 240 245 249 244 245 249 247 250 254
248 245 241 238 236 234 231 230 232 228 226 227 231 232 229 225 229 237 238 242 244 246 250 247 243 244 244
252 250 246 247 237 239 238 234 228 230 229 231 232 234 228 228 228 228 237 243 249 248 254 256 255 251 248
261 252 248 245 239 238 236 235 235 229 231 230 236 235 227 228 231 227 229 228 236 248 249 252 256 257 255
252 244 241 245 233 240 236 238 234 228 223 233 239 241 230 227 233 233 233 234 233 236 261 259 261 255 252
259 250 251 256 246 253 249 236 242 230 222 231 242 244 242 233 240 239 236 235 238 222 205 233 271 260 238
296 270 254 250 259 260 253 253 249 237 230 226 235 245 243 227 230 237 237 223 233 221 213 223 226 247 291
359 281 264 268 271 281 280 277 263 247 243 239 235 237 244 238 230 237 233 230 228 237 205 223 242 270 269